Weather Roundup
Issued by NWS

Home | Current Version | Previous Version | Text Only | Print | Product List | Glossary On
Versions: 1 2 3 4 5 6 7 8 9 10 11 12 13 14 15 16 17 18 19 20 21 22 23 24 25 26 27 28 29 30 31 32 33 34 35 36 37 38 39 40 41 42 43 44 45 46 47 48 49 50
000
NZUS93 KARX 290310
HRRWXR

CURRENT HOURLY OBSERVATIONS ACROSS
MUCH OF THE UPPER MISSISSIPPI VALLEY
NATIONAL WEATHER SERVICE LA CROSSE WI
1000 PM CDT WED SEP 28 2016


...SOUTHEAST MINNESOTA...


CITY           SKY/WX    TMP DP  RH WIND       PRES   REMARKS
ROCHESTER      CLOUDY    57  50  77 N13       30.32R
ROCHESTER/MAYO CLOUDY    57  50  76 N7G16     30.32R
WINONA         CLOUDY    59  52  77 N5        30.30R
AUSTIN         MOCLDY    55  48  76 N6        30.31R
ALBERT LEA     CLEAR     54  48  82 N6        30.32R
DODGE CENTER   CLOUDY    55  48  76 N8        30.32R
PRESTON        CLOUDY    56  50  80 N13G21    30.30R
OWATONNA       MOCLDY    55  48  76 N12       30.33R
FARIBAULT      PTCLDY    54  48  82 N6        30.34R
$$

...ELSEWHERE IN MINNESOTA...


CITY           SKY/WX    TMP DP  RH WIND       PRES   REMARKS
MINNEAPOLIS    CLEAR     55  48  77 N9        30.35R
INTNL FALLS    CLOUDY    54  48  80 NE5       30.41R
DULUTH         CLOUDY    53  50  89 E3        30.38R
RED WING       MOCLDY    57  50  77 NE10G16   30.31R
REDWOOD FALLS  MOCLDY    57  47  69 VRB3      30.36R
MANKATO        CLEAR     53  48  83 NE12      30.34R
WORTHINGTON    CLEAR     50  46  86 NE6       30.36R
FAIRMONT       MOCLDY    49  47  93 N6        30.34R
$$

...SOUTHWEST WISCONSIN...


CITY           SKY/WX    TMP DP  RH WIND       PRES   REMARKS
LA CROSSE      PTCLDY    56  51  84 N7        30.27R
PRAIRIE DU CHI CLEAR     55  47  75 N5        30.25R
BOSCOBEL       PTCLDY    54  50  86 E3        30.25R
LONE ROCK      CLEAR     52  49  89 W5        30.25R
PLATTEVILLE    CLEAR     52  51  98 N6        30.22S
FORT MC COY    CLEAR     52  49  92 N7        30.28R
CAMP DOUGLAS   CLEAR     45  45  99 W5        30.26R
MAUSTON-NEW LI CLEAR     50  48  95 CALM      30.25S
VIROQUA        FAIR      51  50  95 N3        30.26R
WIS DELLS      CLEAR     52  48  84 N3        30.24R
$$

...ELSEWHERE IN WISCONSIN...


CITY           SKY/WX    TMP DP  RH WIND       PRES   REMARKS
MILWAUKEE      MOCLDY    61  52  72 N17G26    30.13R
MADISON        CLEAR     52  49  89 N8        30.19F
GREEN BAY      CLEAR     54  54 100 N14       30.24R
EAU CLAIRE     MOCLDY    54  50  86 N6        30.33R
BLACK RVR FLS  FAIR      52  52 100 N5        30.28R
MEDFORD        CLOUDY    52  52 100 N7        30.32R
WAUSAU         CLEAR     53  49  86 N7        30.29R
WIS RAPIDS     PTCLDY    50  49  96 N8        30.28R
MARSHFIELD     CLOUDY    56  49  77 NE10      30.28R
RICE LAKE      CLOUDY    55  48  77 NE5       30.36R
$$

...NORTHEAST IOWA...


CITY           SKY/WX    TMP DP  RH WIND       PRES   REMARKS
WATERLOO       MOCLDY    51  47  86 NW7       30.25R
DUBUQUE        CLEAR     53  49  86 N9        30.22R
DECORAH        PTCLDY    54  50  87 N6        30.26R
MASON CITY     CLOUDY    56  51  84 N9        30.31R
CHARLES CITY   CLEAR     54  52  94 N7        30.29R
OELWEIN        CLEAR     54  50  87 N6        30.26R
$$

...ELSEWHERE IN IOWA...


CITY           SKY/WX    TMP DP  RH WIND       PRES   REMARKS
DES MOINES     CLOUDY    58  49  72 N8        30.27R
IOWA CITY      CLEAR     58  51  78 N8        30.22R
FORT DODGE     CLEAR     54  45  71 N5        30.31R
MARSHALLTOWN   CLOUDY    55  51  86 N8        30.26R
CEDAR RAPIDS   CLEAR     53  51  93 N6        30.22R
$$

...NORTHERN ILLINOIS...


CITY           SKY/WX    TMP DP  RH WIND       PRES   REMARKS
CHICAGO-OHARE  RAIN      56  53  90 N14G24    30.07R
CHICAGO-MIDWAY LGT RAIN  57  53  86 N13       30.06R
MOLINE         CLEAR     57  49  74 N7        30.18R
ROCKFORD       CLEAR     55  48  77 N12       30.17S
PEORIA         MOCLDY    56  51  84 N6        30.13R
$$

NOTE: "FAIR" INDICATES FEW OR NO CLOUDS BELOW 12,000 FEET WITH NO
SIGNIFICANT WEATHER AND/OR OBSTRUCTIONS TO VISIBILITY. WIND
SPEEDS ARE IN MILES-PER-HOUR.




USA.gov is the U.S. government's official web portal to all federal, state and local government web resources and services.